SL-4 R/B (44505 NORAD) Tracking and Keplerian Element Data

This shows tracking and keplerian element data for the satellite.

Feedback or suggestion? Click here.




ElementValue
Catalog44505
NameSL-4 R/B
Epoch Orbit64
Epoch Day238.08995892
Epoch Year2019
RAAN12.7908
Inclination51.6578
Eccentricity0.0002742
Argument of Perigee39.2461
Mean Anonmoly126.6476
Mean Motion16.48053196
Decay Rate0.09683006
L11 44505U 19055B 19238.08995892 .09683006 12660-4 16004-3 0 9996
L22 44505 51.6578 12.7908 0002742 39.2461 126.6476 16.48053196 644

Live tracking and technical data element details for SL-4 R/B (NORAD 44505). SL-4 R/B can be tracked NOW for your location showing map with azimuth and elevation plus other details from your city location.

Track the satellite on the map from your city or location and see movement details for azimuth, elevation, latitude, longitude, range, height, and movement on the map or in text.







IsCatalogInMostPopularTable: catalog: 44505, numindb: 11
Update: records affected: 1



GetName: 44505 SL-4 R/B

Hit Count: updated at: Thu, 19 Sep 2019 16:51:47 GMT